Location: George Washington National Forest Helicopter Landing Site
(38.6463°N, 79.0851°W)
Time: 02:36:18
(UTC-04:00)

Tiros 1 despin weight - Pass Details

Date: 27 August 2019
Orbit: 595 x 642 km, 48.2° (Epoch: 15 September)

Event Time Altitude Azimuth Distance (km) Brightness Sun altitude
Rises 02:30:35 0° 299° (WNW) 2,847 - -38.4°
Reaches altitude 10° 02:33:11 10° 312° (NW) 1,950 - -38.2°
Maximum altitude 02:36:58 26° 10° (N) 1,209 - -37.9°
Drops below altitude 10° 02:40:47 10° 67° (ENE) 1,973 - -37.5°
Exits shadow 02:41:21 - 71° (ENE) 2,159 ? -37.5°
Sets 02:43:25 0° 80° (E) 2,887 ? -37.3°
